Regional Weather Roundup
Issued by NWS Jackson, KY

Home | Current Version | Previous Version | Graphics & Text | Print | Product List | Glossary On
Versions: 1 2 3 4 5 6 7 8 9 10 11 12 13 14 15 16 17 18 19 20 21 22 23 24 25 26 27 28 29 30 31 32 33 34 35 36 37 38 39 40 41 42 43 44 45 46 47 48 49 50
000
ASUS43 KJKL 031710
RWRJKL

EAST KENTUCKY HOURLY WEATHER ROUNDUP
NATIONAL WEATHER SERVICE JACKSON KY
1200 PM EST TUE MAR 03 2015

NOTE: "FAIR" INDICATES FEW OR NO CLOUDS BELOW 12,000 FEET WITH
NO SIGNIFICANT WEATHER AND/OR OBSTRUCTIONS TO VISIBILITY.

* THESE REPORTS ARE NOT UNDER NWS QUALITY CONTROL AND MAY NOT
  REPORT WEATHER SUCH AS PRECIPITATION AND FOG.

KYZ079-080-083-085-087-088-110-112-115-119-120-031800
...EASTERN KENTUCKY...

CITY           SKY/WX    TMP DP  RH WIND       PRES   REMARKS
JACKSON        CLOUDY    46  37  71 VRB3      30.02F
LONDON         CLOUDY    55  46  71 SW8       30.05F
SOMERSET*      CLOUDY    54  46  76 S9        30.05F
MONTICELLO*    CLOUDY    59  53  80 S13       30.06F
MIDDLESBORO*   CLOUDY    42  37  82 SE8       30.14F
HAZARD APT*    CLOUDY    57  48  72 SW9G16    30.03F
BLACK MTN*       N/A     39  39 100 S6          N/A  WCI  35
PIKEVILLE APT* PTSUNNY   50  43  76 S10G17    30.03F
BIG SANDY*     CLOUDY    47  40  74 S7        30.04F
MOREHEAD APT*  CLOUDY    39  36  87 SE6       30.01F WCI  35
$$

KYZ035-036-041-042-044-050-067-078-099-031800
...CENTRAL KENTUCKY...

CITY           SKY/WX    TMP DP  RH WIND       PRES   REMARKS
MT STERLING*   RAIN      41  39  93 SW12      29.99F
FLEMING/MASON* RAIN      36  34  93 S7        29.98F WCI  30
DANVILLE*      CLOUDY    48  45  87 SW12      30.01F
RICHMOND*      CLOUDY    50  46  87 S12       30.00F
LEXINGTON      LGT RAIN  42  41  96 S14       29.96F FOG
FRANKFORT      LGT RAIN  42  40  92 S9        29.95F
$$

KYZ091>093-OHZ055-061-077-WVZ005-015-034-035-042-031800
...SOUTHERN OHIO/WEST VIRGINIA...

CITY           SKY/WX    TMP DP  RH WIND       PRES   REMARKS
COVINGTON      LGT RAIN  36  33  89 S13       29.90F FOG     WCI  27
COLUMBUS       LGT RAIN  32  22  66 S10       29.95F WCI  24
DAYTON         FRZ RAIN  32  29  88 S15       29.87F FOG     WCI  22
WILMINGTON     LGT RAIN  33  30  88 S15       29.90F FOG     WCI  23
HUNTINGTON     CLOUDY    38  35  89 S6        30.01F WCI  33
CHARLESTON     CLOUDY    43  36  76 S6        30.03F
PINEVILLE*     CLOUDY    43  40  89 MISG      30.15F
BECKLEY        LGT RAIN  36  30  79 SE15G25   30.10F WCI  27
BLUEFIELD      CLOUDY    41  30  65 VRB6G17   30.13F
$$

VAZ002-007-008-TNZ017-027-036-066-071-031800
...SOUTHWEST VIRGINIA/EAST TENNESSEE...

CITY           SKY/WX    TMP DP  RH WIND       PRES   REMARKS
WISE*          CLOUDY    45  45 100 S10G16    30.12F FOG
JONESVILLE*    FOG       37  37 100 CALM      30.18S VSB 1/2
ABINGDON*      CLOUDY    42  38  86 NE5       30.15F
BRISTOL        CLOUDY    48  38  68 CALM      30.14F
KNOXVILLE      CLOUDY    45  42  89 W6        30.15F
OAK RIDGE      CLOUDY    44  43  96 CALM      30.17F FOG
CROSSVILLE     CLOUDY    52  50  93 S10G18    30.11F FOG
NASHVILLE      CLOUDY    58  53  84 S13       30.06F
$$

...KEY TO REMARKS...
VSB - VISIBILITY IN MILES
WCI - WIND CHILL INDEX
HX  - HEAT INDEX

$$



USA.gov is the U.S. government's official web portal to all federal, state and local government web resources and services.